Location: Unspecified
(42.3650°N, 71.1030°W)
Time: 14:52:24
(UTC+00:00)

SJ 16-02 - Pass Details

Date: 02 March 2024
Orbit: 595 x 607 km, 75.0° (Epoch: 19 April)

Event Time Altitude Azimuth Distance (km) Brightness Sun altitude
Rises 23:08:35 0° 215° (SW) 2,843 5.4 -6.8°
Reaches altitude 10° 23:10:54 10° 223° (SW) 1,947 4.6 -7.2°
Maximum altitude 23:15:01 40° 294° (WNW) 893 2.8 -8.0°
Drops below altitude 10° 23:19:10 10° 4° (N) 1,967 3.9 -8.7°
Sets 23:21:32 0° 12° (NNE) 2,877 4.6 -9.2°
